Regional Weather Roundup
Issued by NWS

Home | Current Version | Previous Version | Graphics & Text | Print | Product List | Glossary On
Versions: 1 2 3 4 5 6 7 8 9 10 11 12 13 14 15 16 17 18 19 20 21 22 23 24 25 26 27 28 29 30 31 32 33 34 35 36 37 38 39 40 41 42 43 44 45 46 47 48 49 50
636
ASUS44 KJAN 210003
RWRMS

MISSISSIPPI HOURLY WEATHER ROUNDUP
NATIONAL WEATHER SERVICE JACKSON MS
600 PM CST THU NOV 20 2014

NOTE: "FAIR: INDICATES FEW OR NO CLOUDS BELOW 12,000 FEET WITH NO
SIGNIFICANT WEATHER AND/OR OBSTRUCTIONS TO VISIBILITY.

MSZ001>002-007>008-010>013-018>021-025>028-034>036-210100-
NORTHWEST MISSISSIPPI

CITY           SKY/WX    TMP DP  RH WIND       PRES   REMARKS
CLARKSDALE     FAIR      48  37  66 CALM      30.20S
CLEVELAND      FAIR      50  48  91 E3        30.18S
GREENWOOD      MOCLDY    49  45  86 CALM      30.19R
6HR MIN TEMP:  49; 6HR MAX TEMP:  60; 6HR PCP: TRACE;

GREENVILLE     PTCLDY    51  46  83 CALM      30.18R
6HR MIN TEMP:  51; 6HR MAX TEMP:  59;

GRENADA        FAIR      46  43  87 CALM      30.19S
OLIVE BRANCH   MOCLDY    50  30  46 E3        30.21R
OXFORD         FAIR      46  32  57 SE3       30.21S
TUNICA         CLEAR     45  36  70 NE3       30.20S
$$

MSZ003>006-009-014>017-022>024-029>033-037>039-210100-
NORTHEAST MISSISSIPPI

CITY           SKY/WX    TMP DP  RH WIND       PRES   REMARKS
COLUMBUS AFB   CLOUDY    52  42  69 CALM      30.21R
6HR MIN TEMP:  52; 6HR MAX TEMP:  61;

CORINTH        MOCLDY    45  30  57 CALM      30.22R
GOLDN TRIANGLE CLOUDY    55  41  58 E5        30.20S
STARKVILLE       N/A    N/A N/A N/A MISG        N/A
TUPELO         CLOUDY    53  34  48 E3        30.21R
6HR MIN TEMP:  52; 6HR MAX TEMP:  59;

$$

MSZ040-058-210100-
CENTRAL MISSISSIPPI

CITY           SKY/WX    TMP DP  RH WIND       PRES   REMARKS
JACKSON INTL   PTCLDY    54  49  83 CALM      30.19R
6HR MIN TEMP:  52; 6HR MAX TEMP:  67;

JACKSON HAWKNS MOCLDY    56  49  77 CALM      30.19R
6HR MIN TEMP:  56; 6HR MAX TEMP:  67;

MERIDIAN KEY   PTCLDY    54  46  74 CALM      30.20S
6HR MIN TEMP:  54; 6HR MAX TEMP:  68;

MERIDIAN NAS   MOCLDY    55  48  77 E3        30.21S
6HR MIN TEMP:  55; 6HR MAX TEMP:  65;

RAYMOND        MOCLDY    55  50  82 CALM      30.18R
VICKSBURG      CLOUDY    55  52  89 CALM      30.17R
6HR MIN TEMP:  55; 6HR MAX TEMP:  67;

$$

MSZ059>079-210100-
SOUTH MISSISSIPPI

CITY           SKY/WX    TMP DP  RH WIND       PRES   REMARKS
BROOKHAVEN     MOCLDY    57  50  77 CALM      30.20R
HATTIESBURG    PTCLDY    58  47  66 S7        30.21R
6HR MIN TEMP:  55; 6HR MAX TEMP:  70;

MCCOMB         MOCLDY    58  46  64 S6        30.19R
6HR MIN TEMP:  57; 6HR MAX TEMP:  70;

NATCHEZ        MOCLDY    59  48  67 CALM      30.18R
6HR MIN TEMP:  59; 6HR MAX TEMP:  70;

PINE BELT      PTCLDY    54  45  71 CALM      30.21S
6HR MIN TEMP:  54; 6HR MAX TEMP:  66;

$$

MSZ080>082-210100-
COASTAL MISSISSIPPI

CITY           SKY/WX    TMP DP  RH WIND       PRES   REMARKS
BILOXI         CLEAR     56  47  71 S1        30.23R
6HR MIN TEMP:  54; 6HR MAX TEMP:  65;

PASCAGOULA     CLEAR     47  46  97 CALM      30.24R
6HR MIN TEMP:  47; 6HR MAX TEMP:  68;

GULFPORT       CLEAR     53  44  71 CALM      30.22S
6HR MIN TEMP:  53; 6HR MAX TEMP:  65;

$$



USA.gov is the U.S. government's official web portal to all federal, state and local government web resources and services.